Regional Weather Roundup
Issued by NWS Bismarck, ND

Home | Current Version | Previous Version | Text Only | Print | Product List | Glossary On
Versions: 1 2 3 4 5 6 7 8 9 10 11 12 13 14 15 16 17 18 19 20 21 22 23 24 25 26 27 28 29 30 31 32 33 34 35 36 37 38 39 40 41 42 43 44 45 46 47 48 49 50
000
ASUS43 KBIS 280002
RWRBIS

NWR BROADCAST TEXT
NATIONAL WEATHER SERVICE BISMARCK ND
700 PM CDT TUE SEP 27 2016

NOTE: "FAIR" INDICATES FEW OR NO CLOUDS BELOW 12,000 FEET WITH NO
SIGNIFICANT WEATHER AND/OR OBSTRUCTIONS TO VISIBILITY.


CITY           SKY/WX    TMP DP  RH WIND       PRES   REMARKS
WILLISTON      CLEAR     78  53  41 CALM      29.91S
MINOT          CLEAR     65  43  44 NE6       29.94S
MINOT AFB      CLEAR     65  43  44 E6        29.94R
BISMARCK       CLEAR     70  42  36 N7        29.95R
DICKINSON      CLEAR     73  45  36 N5        29.94R
GARRISON         N/A     67  46  47 CALM      29.95R
HETTINGER ARPT CLEAR     75  50  41 NW8       29.97R
JAMESTOWN      CLEAR     60  35  39 N5        29.93R
BEACH          FAIR      75  52  43 W3        29.99S
CARRINGTON     FAIR      61  32  33 N7        29.96R
HAZEN          FAIR      68  45  42 E6        29.96S
RUGBY          FAIR      61  34  36 N8        29.95S
STANLEY        FAIR      68  50  52 SE6       29.96S
$$

CITY           SKY/WX    TMP DP  RH WIND       PRES   REMARKS
GRAND FORKS    PTCLDY    56  44  64 N14G21    29.94R
GRAND FORKS AF CLEAR     54  44  68 NE9       29.95R
DEVILS LAKE    CLEAR     59  36  42 N9        29.96R
FARGO          CLEAR     56  43  61 N13       29.92R
CANDO          FAIR      57  37  47 NE7       29.98R
CAVALIER       CLOUDY    55  45  67 N8        29.96R
GRAFTON        CLOUDY    55  46  71 N10G16    29.97R
GWINNER        FAIR      63  32  31 N8        29.92R
LANGDON        FAIR      54  43  66 NE13      29.97R
ROLLA          FAIR      57  37  47 N6        29.98R
WALHALLA       FAIR      55  50  82 N8        29.97R
$$

CITY           SKY/WX    TMP DP  RH WIND       PRES   REMARKS
ABERDEEN       CLEAR     67  35  30 N9        29.91R
MOBRIDGE       CLEAR     72  42  34 NE9       29.91R
BUFFALO          N/A     77  45  32 NW12      29.94R
RAPID CITY     CLEAR     78  42  27 N14       29.99R
GLASGOW        CLEAR     83  45  26 W8        29.90S
SIDNEY         CLEAR     80  50  34 CALM      29.91S
WOLF POINT     CLEAR     82  51  34 SW3       29.90S
GLENDIVE       CLEAR     76  51  41 NW7       29.95R
MILES CITY     CLEAR     80  47  31 W6        29.97R
BAKER          CLEAR     74  50  42 W5        29.99S
$$

CITY           SKY/WX    TMP DP  RH WIND       PRES   REMARKS
BILLINGS       CLEAR     82  36  19 NW8       30.03S
GREAT FALLS    SUNNY     80  43  26 S8        30.02R
$$




USA.gov is the U.S. government's official web portal to all federal, state and local government web resources and services.